Location: Hope
(40.9110°N, 74.9680°W)
Time: 03:58:58
(UTC-05:00)

Envisat - Visible Passes

Search period start: 18 February 2018 00:00
Search period end: 28 February 2018 00:00
Orbit: 764 x 766 km, 98.2° (Epoch: 17 February)

Date Brightness Start Highest point End Pass type
(mag) Time Alt. Az. Time Alt. Az. Time Alt. Az.
18 Feb 3.0 19:05:33 10° SSE 19:10:28 54° ENE 19:15:26 10° N visible
18 Feb 5.5 20:46:31 10° SW 20:49:49 17° W 20:53:07 10° NW visible
19 Feb 4.0 18:29:54 10° ESE 18:34:00 25° ENE 18:38:08 10° NNE visible
19 Feb 4.3 20:08:06 10° SSW 20:12:48 38° W 20:17:33 10° NNW visible
20 Feb 2.9 19:30:56 10° SSE 19:36:00 86° WSW 19:41:07 10° NNW visible
21 Feb 3.3 18:54:37 10° SE 18:59:23 43° ENE 19:04:11 10° N visible
21 Feb 5.2 20:34:42 10° SW 20:38:34 22° W 20:42:28 10° NW visible
22 Feb 4.2 18:19:17 10° ESE 18:22:59 21° ENE 18:26:41 10° NNE visible
22 Feb 3.8 19:56:44 10° S 20:01:37 48° W 20:06:33 10° NNW visible
23 Feb 2.9 19:19:49 10° SSE 19:24:53 76° ENE 19:29:58 10° N visible
23 Feb 5.9 21:02:29 10° WSW 21:04:27 12° W 21:06:23 10° WNW visible
24 Feb 3.6 18:43:47 10° SE 18:48:20 34° ENE 18:52:54 10° N visible
24 Feb 4.9 20:23:04 10° SSW 20:27:21 27° W 20:31:40 10° NW visible
25 Feb 4.5 18:08:50 10° E 18:11:58 17° ENE 18:15:07 10° NNE visible
25 Feb 3.4 19:45:27 10° S 19:50:28 62° W 19:55:31 10° NNW visible
26 Feb 3.0 19:08:48 10° SSE 19:13:46 60° ENE 19:18:47 10° N visible
26 Feb 5.7 20:50:11 10° SW 20:53:10 16° W 20:56:10 10° NW visible
27 Feb 3.9 18:33:02 10° SE 18:37:16 28° ENE 18:41:32 10° N visible
27 Feb 4.5 20:11:33 10° SSW 20:16:09 35° W 20:20:47 10° NNW visible
